QPF
0.04 0.05 0.06 0.05 0.03 0.02 0.02 0.02 0.03 0.02 0.02 0.03 0.04 0.05 0.04 0.03 0.03 0.03 0.03 0.03 0.02 0.02 0.01 0.01 0.01 0.01 0.01 0.02 0.02 0.02 0.03 0.06 0.06 0.06 0.05 0.05 0.05 0.05
0.03 0.05 0.07 0.07 0.06 0.04 0.03 0.02 0.03 0.03 0.02 0.02 0.04 0.04 0.04 0.03 0.03 0.03 0.03 0.03 0.02 0.01 0.01 0.01 0.01 0.01 0.01 0.01 0.01 0.02 0.02 0.04 0.06 0.07 0.06 0.05 0.06 0.07
0.04 0.04 0.05 0.06 0.06 0.05 0.04 0.03 0.02 0.02 0.03 0.03 0.03 0.04 0.03 0.03 0.03 0.03 0.02 0.02 0.02 0.02 0.01 0.01 0.01 0.01 0.01 0.01 0.01 0.01 0.02 0.03 0.06 0.07 0.07 0.05 0.04 0.04
0.04 0.04 0.04 0.05 0.06 0.06 0.06 0.05 0.03 0.02 0.03 0.03 0.03 0.03 0.03 0.03 0.02 0.02 0.02 0.02 0.02 0.02 0.01 0.01 0.01 0.01 0.01 0.01 0.01 0.01 0.02 0.02 0.05 0.07 0.06 0.05 0.04 0.03
0.05 0.05 0.04 0.04 0.06 0.06 0.06 0.05 0.05 0.04 0.03 0.03 0.03 0.03 0.03 0.03 0.03 0.03 0.02 0.02 0.02 0.02 0.02 0.01 0.01 0.01 0.01 0.01 0.01 0.01 0.01 0.01 0.02 0.06 0.07 0.05 0.04 0.04
0.05 0.05 0.05 0.06 0.06 0.06 0.06 0.05 0.05 0.05 0.04 0.04 0.03 0.02 0.03 0.03 0.03 0.03 0.03 0.03 0.03 0.02 0.02 0.02 0.02 0.01 0.01 0.01 0.01 0.01 0.01 0.01 0.01 0.03 0.06 0.06 0.05 0.04
0.05 0.05 0.05 0.06 0.06 0.07 0.07 0.06 0.06 0.06 0.06 0.05 0.04 0.03 0.02 0.03 0.04 0.04 0.03 0.03 0.03 0.03 0.02 0.02 0.01 0.01 0.01 0.01 0.01 0.01 0.01 0.01 0.01 0.02 0.04 0.06 0.05 0.04
0.05 0.04 0.04 0.05 0.05 0.06 0.07 0.08 0.08 0.08 0.08 0.07 0.06 0.05 0.03 0.03 0.04 0.04 0.04 0.04 0.04 0.04 0.04 0.03 0.02 0.02 0.01 0.01 0.01 0.01 0.01 0.01 0.01 0.02 0.03 0.05 0.06 0.06
0.05 0.04 0.04 0.04 0.04 0.05 0.05 0.06 0.07 0.08 0.08 0.07 0.07 0.05 0.04 0.04 0.04 0.04 0.04 0.04 0.04 0.05 0.06 0.05 0.03 0.02 0.01 0.01 0.02 0.01 0.01 0.01 0.01 0.02 0.03 0.04 0.06 0.06
0.04 0.03 0.03 0.03 0.03 0.03 0.04 0.04 0.05 0.06 0.07 0.07 0.07 0.06 0.05 0.05 0.05 0.05 0.05 0.05 0.04 0.04 0.05 0.05 0.04 0.02 0.02 0.01 0.01 0.01 0.01 0.01 0.01 0.02 0.03 0.04 0.05 0.06
0.03 0.03 0.02 0.02 0.02 0.02 0.03 0.03 0.04 0.04 0.04 0.05 0.06 0.06 0.06 0.06 0.06 0.07 0.07 0.06 0.05 0.04 0.04 0.04 0.04 0.03 0.02 0.01 0.01 0.01 0.01 0.01 0.01 0.01 0.02 0.04 0.05 0.06
0.02 0.02 0.02 0.02 0.02 0.02 0.02 0.03 0.03 0.03 0.03 0.03 0.04 0.05 0.05 0.06 0.06 0.07 0.07 0.07 0.05 0.04 0.04 0.04 0.04 0.04 0.03 0.03 0.02 0.01 0.01 0.01 0.01 0.01 0.01 0.02 0.05 0.06
0.02 0.02 0.02 0.02 0.02 0.02 0.02 0.03 0.03 0.02 0.02 0.03 0.03 0.03 0.04 0.05 0.05 0.05 0.05 0.06 0.06 0.05 0.04 0.05 0.05 0.05 0.04 0.03 0.03 0.02 0.01 0.01 0.01 0.01 0.02 0.02 0.04 0.05
0.02 0.02 0.01 0.02 0.02 0.02 0.03 0.03 0.04 0.03 0.04 0.04 0.03 0.03 0.03 0.03 0.03 0.03 0.04 0.04 0.04 0.04 0.04 0.05 0.06 0.06 0.06 0.04 0.03 0.03 0.02 0.01 0.01 0.02 0.02 0.03 0.03 0.05
0.02 0.02 0.02 0.02 0.02 0.03 0.03 0.04 0.04 0.04 0.05 0.05 0.04 0.03 0.03 0.02 0.02 0.03 0.04 0.04 0.05 0.05 0.05 0.05 0.06 0.07 0.07 0.06 0.04 0.03 0.03 0.02 0.02 0.02 0.02 0.02 0.03 0.04
0.02 0.02 0.02 0.02 0.02 0.02 0.03 0.04 0.04 0.05 0.05 0.05 0.05 0.04 0.03 0.03 0.03 0.04 0.04 0.05 0.06 0.05 0.05 0.05 0.05 0.06 0.06 0.05 0.04 0.03 0.03 0.03 0.02 0.02 0.02 0.03 0.03 0.04
0.03 0.03 0.02 0.02 0.02 0.02 0.02 0.03 0.04 0.05 0.05 0.05 0.05 0.05 0.05 0.05 0.04 0.04 0.04 0.05 0.05 0.04 0.04 0.05 0.06 0.06 0.06 0.05 0.05 0.04 0.03 0.03 0.03 0.03 0.03 0.04 0.05 0.05
0.04 0.03 0.02 0.02 0.02 0.02 0.02 0.02 0.02 0.03 0.04 0.05 0.05 0.05 0.05 0.05 0.04 0.04 0.04 0.04 0.04 0.03 0.03 0.04 0.05 0.06 0.06 0.06 0.05 0.03 0.03 0.03 0.04 0.04 0.04 0.04 0.05 0.05
0.04 0.04 0.03 0.03 0.03 0.02 0.02 0.02 0.02 0.02 0.02 0.03 0.04 0.04 0.04 0.04 0.04 0.04 0.04 0.04 0.04 0.04 0.04 0.03 0.04 0.05 0.06 0.05 0.04 0.03 0.03 0.03 0.04 0.04 0.04 0.04 0.04 0.04
0.04 0.04 0.04 0.03 0.03 0.03 0.02 0.02 0.02 0.02 0.02 0.02 0.02 0.03 0.04 0.04 0.04 0.04 0.04 0.04 0.04 0.04 0.04 0.04 0.04 0.05 0.06 0.05 0.04 0.04 0.04 0.04 0.04 0.04 0.04 0.05 0.04 0.04
0.03 0.03 0.03 0.04 0.03 0.03 0.03 0.02 0.02 0.02 0.02 0.02 0.02 0.03 0.03 0.04 0.04 0.04 0.04 0.04 0.04 0.04 0.04 0.04 0.04 0.04 0.05 0.05 0.05 0.05 0.05 0.05 0.04 0.05 0.05 0.05 0.05 0.04
0.02 0.02 0.03 0.03 0.03 0.03 0.03 0.03 0.02 0.02 0.02 0.02 0.03 0.03 0.03 0.03 0.04 0.04 0.04 0.04 0.04 0.04 0.04 0.04 0.03 0.04 0.06 0.07 0.06 0.05 0.05 0.05 0.06 0.05 0.04 0.04 0.04 0.04
0.02 0.02 0.03 0.03 0.03 0.03 0.03 0.03 0.03 0.02 0.02 0.02 0.02 0.03 0.04 0.04 0.04 0.04 0.04 0.05 0.04 0.04 0.04 0.04 0.04 0.05 0.06 0.07 0.06 0.05 0.05 0.06 0.06 0.06 0.06 0.05 0.04 0.03
MSLP
1028.90 1029.04 1029.16 1029.25 1029.27 1029.21 1029.05 1028.80 1028.44 1028.01 1027.51 1026.96 1026.40 1025.85 1025.31 1024.80 1024.31 1023.85 1023.40 1022.96 1022.51 1022.05 1021.57 1021.08 1020.57 1020.06 1019.53 1019.01 1018.48 1017.95 1017.42 1016.88 1016.34 1015.80 1015.28 1014.82 1014.43 1014.14
1028.48 1028.66 1028.84 1028.98 1029.07 1029.07 1028.97 1028.76 1028.44 1028.02 1027.51 1026.95 1026.35 1025.75 1025.16 1024.60 1024.06 1023.55 1023.06 1022.58 1022.10 1021.60 1021.09 1020.56 1020.02 1019.48 1018.93 1018.39 1017.87 1017.34 1016.83 1016.30 1015.78 1015.25 1014.73 1014.23 1013.78 1013.41
1027.88 1028.09 1028.30 1028.49 1028.63 1028.69 1028.65 1028.50 1028.22 1027.83 1027.34 1026.78 1026.17 1025.55 1024.93 1024.34 1023.76 1023.22 1022.68 1022.16 1021.63 1021.09 1020.53 1019.95 1019.37 1018.78 1018.21 1017.65 1017.12 1016.60 1016.10 1015.61 1015.11 1014.60 1014.08 1013.57 1013.08 1012.65
1027.22 1027.43 1027.66 1027.88 1028.06 1028.16 1028.17 1028.06 1027.83 1027.47 1027.02 1026.48 1025.89 1025.27 1024.65 1024.04 1023.44 1022.86 1022.29 1021.73 1021.15 1020.55 1019.93 1019.30 1018.66 1018.02 1017.41 1016.82 1016.27 1015.76 1015.27 1014.80 1014.33 1013.84 1013.34 1012.83 1012.32 1011.84
1026.56 1026.77 1027.00 1027.23 1027.42 1027.55 1027.58 1027.51 1027.31 1027.00 1026.58 1026.08 1025.52 1024.93 1024.32 1023.71 1023.11 1022.52 1021.92 1021.31 1020.68 1020.03 1019.35 1018.65 1017.95 1017.25 1016.58 1015.96 1015.38 1014.85 1014.36 1013.90 1013.44 1012.98 1012.49 1011.97 1011.45 1010.94
1025.98 1026.18 1026.40 1026.62 1026.80 1026.92 1026.96 1026.89 1026.72 1026.44 1026.06 1025.61 1025.09 1024.54 1023.96 1023.38 1022.79 1022.20 1021.58 1020.95 1020.28 1019.57 1018.83 1018.06 1017.29 1016.52 1015.79 1015.11 1014.49 1013.93 1013.42 1012.94 1012.48 1012.01 1011.52 1011.01 1010.48 1009.95
1025.47 1025.67 1025.87 1026.05 1026.21 1026.30 1026.32 1026.25 1026.09 1025.83 1025.49 1025.08 1024.62 1024.12 1023.60 1023.06 1022.50 1021.92 1021.30 1020.64 1019.94 1019.19 1018.39 1017.56 1016.71 1015.88 1015.08 1014.33 1013.65 1013.03 1012.48 1011.96 1011.47 1010.97 1010.46 1009.93 1009.38 1008.85
1024.99 1025.19 1025.37 1025.52 1025.64 1025.69 1025.68 1025.60 1025.43 1025.19 1024.89 1024.53 1024.12 1023.69 1023.23 1022.74 1022.22 1021.67 1021.06 1020.40 1019.68 1018.88 1018.04 1017.15 1016.25 1015.35 1014.48 1013.66 1012.90 1012.21 1011.58 1011.00 1010.44 1009.90 1009.34 1008.77 1008.20 1007.65
1024.50 1024.69 1024.85 1024.97 1025.05 1025.06 1025.02 1024.91 1024.74 1024.52 1024.25 1023.95 1023.61 1023.24 1022.84 1022.42 1021.95 1021.43 1020.85 1020.19 1019.46 1018.64 1017.76 1016.84 1015.88 1014.92 1013.99 1013.10 1012.27 1011.50 1010.78 1010.11 1009.47 1008.83 1008.21 1007.58 1006.96 1006.38
1023.92 1024.11 1024.25 1024.35 1024.39 1024.38 1024.31 1024.19 1024.03 1023.82 1023.59 1023.34 1023.06 1022.76 1022.44 1022.08 1021.66 1021.18 1020.62 1019.98 1019.24 1018.42 1017.52 1016.57 1015.59 1014.59 1013.61 1012.66 1011.76 1010.91 1010.10 1009.33 1008.58 1007.84 1007.12 1006.41 1005.72 1005.09
1023.21 1023.40 1023.54 1023.62 1023.65 1023.62 1023.54 1023.42 1023.27 1023.10 1022.91 1022.71 1022.49 1022.26 1021.99 1021.68 1021.32 1020.87 1020.34 1019.71 1018.98 1018.16 1017.26 1016.30 1015.31 1014.30 1013.29 1012.31 1011.36 1010.44 1009.55 1008.68 1007.82 1006.98 1006.14 1005.32 1004.55 1003.85
1022.36 1022.55 1022.69 1022.77 1022.80 1022.77 1022.70 1022.60 1022.48 1022.35 1022.21 1022.06 1021.90 1021.72 1021.50 1021.23 1020.90 1020.48 1019.96 1019.34 1018.62 1017.81 1016.92 1015.98 1015.00 1014.00 1012.99 1012.00 1011.03 1010.07 1009.12 1008.17 1007.21 1006.25 1005.30 1004.37 1003.49 1002.70
1021.39 1021.59 1021.73 1021.83 1021.87 1021.86 1021.82 1021.76 1021.68 1021.59 1021.50 1021.40 1021.28 1021.14 1020.96 1020.72 1020.39 1019.98 1019.47 1018.86 1018.14 1017.34 1016.47 1015.55 1014.60 1013.63 1012.66 1011.69 1010.72 1009.75 1008.76 1007.75 1006.72 1005.67 1004.61 1003.56 1002.57 1001.67
1020.34 1020.54 1020.70 1020.81 1020.88 1020.91 1020.91 1020.90 1020.87 1020.83 1020.79 1020.73 1020.66 1020.54 1020.37 1020.14 1019.81 1019.39 1018.87 1018.25 1017.53 1016.74 1015.89 1015.00 1014.08 1013.16 1012.24 1011.31 1010.37 1009.42 1008.43 1007.39 1006.31 1005.18 1004.03 1002.88 1001.78 1000.77
1019.26 1019.46 1019.63 1019.77 1019.87 1019.95 1020.00 1020.04 1020.06 1020.08 1020.08 1020.07 1020.02 1019.92 1019.76 1019.51 1019.17 1018.73 1018.19 1017.55 1016.82 1016.03 1015.19 1014.32 1013.45 1012.57 1011.70 1010.83 1009.94 1009.02 1008.04 1007.01 1005.90 1004.73 1003.51 1002.28 1001.08 999.97
1018.18 1018.39 1018.57 1018.74 1018.88 1019.00 1019.10 1019.19 1019.27 1019.34 1019.39 1019.40 1019.38 1019.29 1019.12 1018.86 1018.50 1018.03 1017.45 1016.78 1016.04 1015.23 1014.40 1013.54 1012.70 1011.86 1011.04 1010.21 1009.37 1008.49 1007.55 1006.53 1005.42 1004.23 1002.97 1001.68 1000.42 999.23
1017.15 1017.36 1017.56 1017.74 1017.91 1018.08 1018.23 1018.37 1018.50 1018.61 1018.70 1018.74 1018.73 1018.65 1018.48 1018.20 1017.81 1017.31 1016.70 1016.00 1015.23 1014.40 1013.55 1012.70 1011.86 1011.04 1010.24 1009.44 1008.64 1007.79 1006.88 1005.89 1004.80 1003.61 1002.34 1001.03 999.72 998.48
1016.20 1016.40 1016.60 1016.81 1017.01 1017.20 1017.40 1017.58 1017.75 1017.89 1018.01 1018.08 1018.08 1018.00 1017.83 1017.54 1017.13 1016.60 1015.97 1015.24 1014.43 1013.57 1012.69 1011.81 1010.96 1010.12 1009.32 1008.53 1007.73 1006.90 1006.01 1005.04 1003.97 1002.80 1001.55 1000.24 998.93 997.67
1015.34 1015.54 1015.75 1015.96 1016.18 1016.39 1016.61 1016.81 1017.01 1017.18 1017.31 1017.40 1017.41 1017.34 1017.16 1016.86 1016.44 1015.90 1015.24 1014.48 1013.64 1012.75 1011.83 1010.92 1010.02 1009.15 1008.31 1007.49 1006.67 1005.83 1004.94 1003.98 1002.92 1001.78 1000.56 999.28 998.00 996.77
1014.62 1014.81 1015.01 1015.22 1015.43 1015.65 1015.87 1016.08 1016.28 1016.46 1016.60 1016.69 1016.70 1016.63 1016.45 1016.15 1015.73 1015.17 1014.50 1013.72 1012.86 1011.93 1010.97 1010.00 1009.05 1008.12 1007.22 1006.34 1005.48 1004.59 1003.68 1002.71 1001.67 1000.55 999.37 998.15 996.92 995.75
1014.05 1014.22 1014.40 1014.59 1014.79 1014.99 1015.19 1015.39 1015.57 1015.73 1015.85 1015.93 1015.93 1015.85 1015.67 1015.36 1014.94 1014.39 1013.71 1012.92 1012.04 1011.08 1010.08 1009.07 1008.05 1007.05 1006.07 1005.12 1004.18 1003.24 1002.28 1001.28 1000.24 999.14 998.01 996.85 995.71 994.63
1013.65 1013.79 1013.94 1014.09 1014.25 1014.40 1014.56 1014.72 1014.86 1014.98 1015.07 1015.11 1015.08 1014.98 1014.78 1014.47 1014.04 1013.49 1012.81 1012.03 1011.14 1010.17 1009.14 1008.08 1007.00 1005.93 1004.88 1003.84 1002.82 1001.80 1000.79 999.75 998.70 997.62 996.53 995.44 994.39 993.41
1013.41 1013.50 1013.59 1013.69 1013.78 1013.88 1013.97 1014.06 1014.13 1014.19 1014.22 1014.20 1014.13 1013.99 1013.77 1013.44 1013.00 1012.45 1011.78 1011.00 1010.12 1009.15 1008.11 1007.03 1005.91 1004.79 1003.67 1002.55 1001.45 1000.36 999.28 998.20 997.12 996.04 994.99 993.96 993.00 992.13
Thickness
5466 5467 5469 5471 5472 5475 5477 5479 5481 5489 5498 5501 5500 5502 5502 5504 5506 5507 5510 5514 5516 5519 5523 5525 5528 5531 5533 5535 5538 5540 5543 5545 5547 5549 5552 5554 5556 5558
5454 5456 5458 5459 5460 5462 5464 5466 5468 5473 5481 5488 5487 5487 5487 5490 5492 5493 5497 5500 5504 5506 5510 5512 5515 5518 5521 5523 5525 5528 5530 5533 5535 5538 5540 5543 5545 5547
5441 5444 5446 5446 5448 5450 5451 5453 5456 5459 5464 5471 5471 5472 5473 5475 5477 5480 5483 5486 5491 5493 5496 5499 5502 5505 5507 5510 5512 5515 5517 5520 5523 5526 5528 5531 5533 5536
5430 5432 5434 5435 5436 5437 5439 5441 5444 5446 5450 5455 5457 5457 5459 5461 5464 5466 5468 5472 5476 5480 5482 5485 5489 5491 5494 5496 5499 5501 5504 5506 5510 5513 5516 5519 5522 5523
5418 5419 5421 5422 5424 5425 5426 5428 5430 5432 5435 5438 5443 5444 5444 5446 5448 5451 5454 5457 5461 5465 5468 5472 5475 5478 5481 5483 5486 5488 5491 5494 5497 5499 5501 5504 5508 5510
5406 5407 5409 5410 5411 5412 5413 5415 5416 5417 5420 5423 5427 5429 5430 5432 5433 5437 5441 5444 5448 5450 5454 5458 5462 5464 5468 5471 5474 5476 5478 5480 5482 5485 5488 5491 5494 5497
5394 5395 5396 5397 5397 5398 5400 5401 5402 5404 5406 5409 5412 5415 5417 5418 5419 5422 5426 5431 5434 5436 5441 5445 5449 5452 5454 5457 5460 5463 5465 5467 5470 5472 5475 5478 5481 5483
5382 5383 5383 5384 5385 5385 5386 5387 5388 5390 5393 5394 5398 5401 5404 5404 5405 5407 5411 5415 5421 5425 5426 5431 5433 5439 5442 5445 5448 5450 5452 5454 5457 5459 5462 5465 5468 5471
5369 5370 5370 5372 5372 5372 5373 5373 5374 5375 5376 5379 5383 5387 5389 5390 5391 5394 5397 5400 5405 5408 5408 5416 5420 5425 5429 5432 5434 5437 5439 5441 5444 5446 5449 5451 5455 5458
5355 5356 5357 5359 5359 5359 5360 5361 5363 5364 5364 5365 5369 5374 5374 5374 5376 5379 5381 5384 5389 5392 5393 5400 5407 5410 5415 5419 5421 5423 5425 5428 5430 5433 5435 5438 5441 5444
5342 5344 5345 5346 5347 5346 5347 5349 5351 5352 5351 5352 5354 5357 5360 5361 5362 5363 5366 5370 5377 5381 5381 5385 5391 5395 5401 5406 5408 5409 5411 5414 5416 5419 5421 5424 5427 5429
5330 5332 5333 5334 5333 5332 5333 5335 5337 5340 5340 5341 5342 5345 5346 5349 5349 5350 5353 5357 5363 5367 5370 5370 5375 5377 5384 5392 5394 5395 5397 5400 5403 5405 5408 5410 5413 5414
5317 5319 5320 5320 5320 5320 5321 5322 5324 5325 5326 5328 5330 5332 5334 5336 5338 5339 5341 5344 5348 5353 5355 5356 5359 5362 5365 5373 5379 5381 5383 5386 5389 5392 5394 5396 5398 5400
5304 5307 5308 5308 5308 5308 5309 5311 5311 5311 5312 5315 5318 5320 5323 5325 5327 5328 5330 5332 5335 5338 5339 5340 5343 5346 5350 5356 5363 5368 5370 5371 5374 5377 5379 5381 5383 5386
5291 5293 5294 5295 5295 5297 5298 5298 5298 5298 5300 5302 5305 5308 5310 5313 5314 5316 5318 5320 5323 5325 5326 5328 5330 5334 5337 5342 5348 5352 5355 5358 5359 5362 5365 5367 5370 5373
5277 5279 5280 5282 5283 5284 5286 5286 5286 5286 5288 5290 5293 5295 5297 5299 5301 5303 5305 5308 5311 5314 5315 5317 5319 5322 5326 5330 5333 5337 5340 5343 5346 5347 5350 5353 5356 5359
5264 5266 5268 5269 5271 5272 5273 5274 5274 5274 5275 5277 5279 5281 5283 5285 5288 5290 5292 5295 5298 5302 5305 5306 5308 5310 5312 5315 5319 5323 5326 5329 5331 5333 5336 5340 5343 5345
5251 5253 5254 5256 5257 5258 5259 5260 5261 5262 5263 5265 5266 5268 5270 5273 5276 5278 5280 5283 5287 5291 5293 5295 5296 5298 5301 5303 5305 5310 5313 5315 5318 5320 5323 5327 5332 5335
5239 5240 5241 5242 5243 5244 5245 5246 5247 5249 5250 5252 5254 5256 5258 5260 5263 5266 5269 5272 5276 5280 5282 5284 5285 5288 5292 5296 5298 5296 5300 5303 5305 5307 5311 5316 5321 5325
5228 5228 5229 5229 5230 5231 5232 5233 5235 5237 5238 5240 5242 5244 5246 5249 5252 5256 5260 5263 5266 5269 5271 5273 5275 5277 5281 5284 5286 5287 5287 5291 5294 5297 5301 5305 5309 5312
5217 5217 5217 5217 5218 5219 5220 5222 5223 5225 5227 5228 5230 5232 5235 5238 5242 5246 5250 5253 5254 5257 5261 5264 5266 5265 5267 5269 5273 5277 5278 5280 5283 5286 5290 5294 5299 5302
5206 5206 5206 5207 5207 5208 5209 5211 5213 5215 5216 5218 5220 5223 5226 5229 5233 5236 5240 5243 5245 5248 5250 5252 5254 5256 5258 5262 5266 5268 5270 5271 5273 5276 5279 5285 5289 5295
5195 5196 5196 5197 5198 5198 5200 5201 5203 5205 5207 5209 5212 5214 5217 5221 5225 5228 5231 5234 5236 5238 5240 5242 5245 5248 5250 5253 5255 5258 5261 5263 5266 5269 5272 5276 5280 5284